Weather History for Bloomington, IN

Change the Weather History Date:

Monday, February 18, 2013

  Actual Average Record
Temperature  
Mean Temperature 43 °F 34 °F  
Max Temperature 58 °F 44 °F 62 °F (1997)
Min Temperature 27 °F 24 °F 7 °F (2006)
Degree Days  
Heating Degree Days 22 31  
Month to date heating degree days 587 598  
Since 1 July heating degree days 3631 3773  
Cooling Degree Days 0 0  
Month to date cooling degree days 0 0  
Year to date cooling degree days 0 0  
Moisture  
Dew Point 30 °F    
Average Humidity 61    
Maximum Humidity 86    
Minimum Humidity 36    
Precipitation  
Precipitation 0.39 in 0.10 in 1.69 in (2000)
Month to date precipitation 0.89 1.90  
Year to date precipitation 6.35 5.21  
Sea Level Pressure  
Sea Level Pressure 29.88 in    
Wind  
Wind Speed 15 mph (South)    
Max Wind Speed 32 mph    
Max Gust Speed 44 mph    
Visibility 10 miles    
Events Rain    
T = Trace of Precipitation, MM = Missing Value Source: NWS Daily Summary

Daily Weather History Graph

Daily Weather History Graph

Search for Another Location

Airport:

Trip Planner

Search our weather history database for the weather conditions in past years. The results will help you decide how hot, cold, wet, or windy it might be!

Date:

Astronomy

Feb. 18, 2013 Rise Set
Actual Time 7:33 AM EST 6:27 PM EST
Civil Twilight 7:06 AM EST 6:54 PM EST
Nautical Twilight 6:35 AM EST 7:25 PM EST
Astronomical Twilight 6:04 AM EST 7:56 PM EST
Moon 12:14 PM EST (2/18) 2:11 AM EST (2/18)
Length of Visible Light 11h 47m
Length of Day
10h 53m
First Quarter, 58% of the Moon is Illuminated
Feb 18
First Quarter
Feb 25
Full
Mar 4
Last Quarter
Mar 11
New
Mar 19
First Quarter

Hourly Weather History & Observations

Time (EST) Temp. Windchill Dew Point Humidity Pressure Visibility Wind Dir Wind Speed Gust Speed Precip Events Conditions
12:53 AM 28.0 °F 21.7 °F 12.9 °F 53% 30.13 in 10.0 mi SSE 5.8 mph - N/A   Clear
1:53 AM 28.9 °F 20.4 °F 12.9 °F 51% 30.12 in 10.0 mi SSE 9.2 mph - N/A   Clear
2:53 AM 28.9 °F 21.1 °F 14.0 °F 54% 30.09 in 10.0 mi SSE 8.1 mph - N/A   Clear
3:53 AM 30.0 °F 21.7 °F 15.1 °F 54% 30.06 in 10.0 mi SSE 9.2 mph - N/A   Clear
4:53 AM 30.0 °F 20.5 °F 15.1 °F 54% 30.05 in 10.0 mi SSE 11.5 mph - N/A   Clear
5:53 AM 30.0 °F 21.1 °F 16.0 °F 56% 30.04 in 10.0 mi SSE 10.4 mph - N/A   Clear
7:53 AM 30.9 °F 22.2 °F 17.1 °F 57% 30.01 in 10.0 mi SSE 10.4 mph - N/A   Clear
9:53 AM 41.0 °F 34.3 °F 25.0 °F 53% 29.99 in 10.0 mi South 11.5 mph 19.6 mph N/A   Clear
10:53 AM 48.9 °F - 34.0 °F 56% 29.96 in 10.0 mi SSW 13.8 mph 20.7 mph N/A   Clear
11:53 AM 53.1 °F - 37.0 °F 55% 29.94 in 10.0 mi SSW 21.9 mph 31.1 mph N/A   Clear
12:53 PM 55.0 °F - 37.9 °F 53% 29.92 in 10.0 mi SSW 18.4 mph 29.9 mph N/A   Clear
1:53 PM 57.0 °F - 39.0 °F 51% 29.88 in 10.0 mi South 19.6 mph 31.1 mph N/A   Clear
2:53 PM 57.0 °F - 35.1 °F 44% 29.83 in 10.0 mi South 20.7 mph 29.9 mph N/A   Mostly Cloudy
3:53 PM 57.0 °F - 30.9 °F 37% 29.80 in 10.0 mi South 16.1 mph 21.9 mph N/A   Overcast
4:53 PM 55.9 °F - 30.0 °F 37% 29.79 in 10.0 mi SSW 13.8 mph 35.7 mph N/A   Overcast
5:53 PM 52.0 °F - 35.1 °F 53% 29.79 in 10.0 mi SW 29.9 mph 39.1 mph 0.00 in Rain Light Rain
6:53 PM 50.0 °F - 37.9 °F 63% 29.76 in 10.0 mi South 13.8 mph 32.2 mph 0.06 in Rain Light Rain
8:53 PM 46.0 °F 39.0 °F 41.0 °F 83% 29.70 in 6.0 mi South 17.3 mph 26.5 mph 0.12 in Rain Rain
9:53 PM 46.0 °F 40.2 °F 42.1 °F 86% 29.67 in 10.0 mi South 12.7 mph 25.3 mph 0.07 in Rain Light Rain
10:14 PM 46.4 °F 38.7 °F 42.8 °F 87% 29.66 in 5.0 mi South 20.7 mph 32.2 mph 0.04 in Rain Rain
10:53 PM 46.0 °F 38.0 °F 41.0 °F 83% 29.64 in 7.0 mi South 21.9 mph 32.2 mph 0.11 in Rain Light Rain
11:53 PM 46.9 °F - 42.1 °F 83% 29.62 in 10.0 mi South 27.6 mph 38.0 mph 0.01 in Rain Light Rain